Regional Weather Roundup
Issued by NWS

Home | Current Version | Previous Version | Text Only | Print | Product List | Glossary Off
Versions: 1 2 3 4 5 6 7 8 9 10 11 12 13 14 15 16 17 18 19 20 21 22 23 24 25 26 27 28 29 30 31 32 33 34 35 36 37 38 39 40 41 42 43 44 45 46 47 48 49 50

000
ASUS43 KBIS 070402
RWRND

NORTH DAKOTA REGIONAL WEATHER ROUNDUP
NATIONAL WEATHER SERVICE BISMARCK ND
1100 PM CDT MON JUL 06 2015

NOTE: "FAIR" INDICATES FEW OR NO CLOUDS BELOW 12,000 FEET WITH NO
SIGNIFICANT WEATHER AND/OR OBSTRUCTIONS TO VISIBILITY.


NDZ001>003-009>011-017-070500-
NORTHWEST NORTH DAKOTA

CITY           SKY/WX    TMP DP  RH WIND       PRES   REMARKS
WILLISTON      CLEAR     61  46  57 E5        30.16S
MINOT          CLEAR     54  48  80 CALM      30.16R
$$

NDZ018>021-031>035-040>046-070500-
SOUTHWEST NORTH DAKOTA

CITY           SKY/WX    TMP DP  RH WIND       PRES   REMARKS
BISMARCK       CLEAR     58  50  75 NE5       30.18R
DICKINSON      CLEAR     54  50  86 E8        30.17R FOG
GARRISON         N/A     54  50  86 NE3       30.17R
HETTINGER ARPT CLEAR     55  51  86 E8        30.19R FOG
$$

NDZ004>008-012>016-024-026-027-054-070500-
NORTHEAST NORTH DAKOTA

CITY           SKY/WX    TMP DP  RH WIND       PRES   REMARKS
GRAND FORKS    CLEAR     50  46  86 NW5       30.14R
GRND FRKS AFB  CLEAR     49  47  91 NW2       30.14S
DEVILS LAKE    CLEAR     54  45  71 NE5       30.15R
$$

NDZ022-023-025-028>030-036>039-047>053-070500-
SOUTHEAST NORTH DAKOTA

CITY           SKY/WX    TMP DP  RH WIND       PRES   REMARKS
FARGO          CLEAR     53  46  77 N6        30.15R
JAMESTOWN      CLEAR     54  50  86 NE5       30.16R
$$




USA.gov is the U.S. government's official web portal to all federal, state and local government web resources and services.